Simultaneous Nadir Overpasses (SNOs) Predictions

Prediction of SNOs between GOES-17 and NOAA-20 Satellite Orbit:

Table of predicted SNOs for the next 14.0 days since TLE Epoch: 11/20/2021
Index Date Time (GOES-17) GOES-17 Lat,Lon NOAA-20 Lat,Lon Distance(km) Time Diff (sec)
1 11/20/2021 22:33:48 -0.01,-137.21 -0.09,-137.65 49.24 80
2 11/21/2021 22:17:43 -0.01,-137.20 0.92,-133.11 466.99 80
3 11/23/2021 10:36:49 0.01,-137.19 0.28,-138.37 134.29 80
4 11/24/2021 10:20:43 0.01,-137.18 -0.73,-133.83 381.35 80
5 11/25/2021 22:39:59 -0.01,-137.16 -0.44,-139.14 224.84 80
6 11/26/2021 22:23:53 -0.01,-137.15 0.57,-134.60 290.57 80
7 11/28/2021 10:45:40 0.00,-137.13 0.63,-139.86 311.50 80
8 11/29/2021 10:24:14 0.01,-137.11 -0.38,-135.32 203.54 80
9 11/30/2021 22:46:09 -0.00,-137.08 -0.78,-140.62 403.74 80
10 12/01/2021 22:30:04 -0.00,-137.06 0.23,-136.09 110.91 80
11 12/03/2021 10:51:50 0.00,-137.03 0.97,-141.35 492.45 80
